Tuttle Creek Lake Weather Center

Moon Phase Calendar



Tuttle Creek Lake Water Level
Online Cameras

 


      

Current Conditions in Riley
6/22/2021 6:08:42 AM

59°F
Feels Like 58
Clouds
Humidity
75%
Pressure
29.97"
Wind
8.5 mph (SSW)
Dew Point
51°F
UV Index
0/10 (Low)
Visibility
6 mi

Hourly Forecast

Date & Time Tue, Jun 22
6:00 AM
Tue, Jun 22
7:00 AM
Tue, Jun 22
8:00 AM
Tue, Jun 22
9:00 AM
Tue, Jun 22
10:00 AM
Tue, Jun 22
11:00 AM
Tue, Jun 22
12:00 PM
Tue, Jun 22
1:00 PM
Tue, Jun 22
2:00 PM
Tue, Jun 22
3:00 PM
Tue, Jun 22
4:00 PM
Tue, Jun 22
5:00 PM
Tue, Jun 22
6:00 PM
Tue, Jun 22
7:00 PM
Tue, Jun 22
8:00 PM
Tue, Jun 22
9:00 PM
Tue, Jun 22
10:00 PM
Tue, Jun 22
11:00 PM
Wed, Jun 23
12:00 AM
Wed, Jun 23
1:00 AM
Wed, Jun 23
2:00 AM
Wed, Jun 23
3:00 AM
Wed, Jun 23
4:00 AM
Wed, Jun 23
5:00 AM
Wed, Jun 23
6:00 AM
Wed, Jun 23
7:00 AM
Wed, Jun 23
8:00 AM
Wed, Jun 23
9:00 AM
Wed, Jun 23
10:00 AM
Wed, Jun 23
11:00 AM
Wed, Jun 23
12:00 PM
Wed, Jun 23
1:00 PM
Wed, Jun 23
2:00 PM
Wed, Jun 23
3:00 PM
Wed, Jun 23
4:00 PM
Wed, Jun 23
5:00 PM
Wed, Jun 23
6:00 PM
Wed, Jun 23
7:00 PM
Wed, Jun 23
8:00 PM
Wed, Jun 23
9:00 PM
Wed, Jun 23
10:00 PM
Wed, Jun 23
11:00 PM
Thu, Jun 24
12:00 AM
Thu, Jun 24
1:00 AM
Thu, Jun 24
2:00 AM
Thu, Jun 24
3:00 AM
Thu, Jun 24
4:00 AM
Thu, Jun 24
5:00 AM
Condition
Clouds

Clouds

Clouds

Clouds

Clouds

Clouds

Clouds

Clouds

Clear

Clear

Clear

Clear

Clear

Clear

Clear

Clear

Clear

Clear

Clear

Clear

Clear

Clear

Clear

Clear

Clear

Clear

Clear

Clear

Clear

Clouds

Clouds

Clouds

Clear

Clear

Clear

Clear

Clear

Clear

Clear

Clear

Clear

Clear

Clouds

Clouds

Clouds

Clouds

Clouds

Clouds
Temperature 59°F59°F62°F66°F71°F78°F81°F83°F85°F85°F86°F86°F85°F81°F75°F73°F71°F71°F70°F70°F70°F69°F68°F68°F67°F67°F69°F72°F76°F80°F84°F87°F90°F91°F93°F93°F93°F90°F84°F81°F79°F78°F77°F78°F78°F77°F77°F76°F
Feels Like 58°F58°F61°F65°F71°F78°F81°F82°F83°F84°F84°F84°F84°F81°F75°F72°F71°F70°F70°F69°F69°F68°F68°F67°F66°F66°F69°F72°F76°F82°F87°F91°F94°F96°F98°F99°F100°F98°F91°F86°F79°F79°F79°F79°F79°F78°F78°F77°F
Cloudiness 39%39%45%46%40%32%25%21%0%0%0%0%0%3%0%0%0%0%0%0%0%0%0%0%0%0%0%0%5%16%17%21%10%10%8%6%7%6%0%0%0%9%22%35%63%81%87%81%
Visibility 6 mi6 mi6 mi6 mi6 mi6 mi6 mi6 mi6 mi6 mi6 mi6 mi6 mi6 mi6 mi6 mi6 mi6 mi6 mi6 mi6 mi6 mi6 mi6 mi6 mi6 mi6 mi6 mi6 mi6 mi6 mi6 mi6 mi6 mi6 mi6 mi6 mi6 mi6 mi6 mi6 mi6 mi6 mi6 mi6 mi6 mi6 mi6 mi
Precipitation 0%0%0%0%0%0%0%0%0%0%0%0%0%0%0%0%0%0%0%0%0%0%0%0%0%0%0%0%0%0%0%0%0%0%0%0%0%0%0%0%0%0%0%0%0%0%0%0%
Humidity 75%74%71%64%55%44%40%36%33%32%33%34%39%48%57%60%60%58%57%56%55%55%56%57%61%67%68%66%64%60%56%53%50%48%46%45%48%58%71%77%82%84%84%82%80%80%80%81%
Dew Point 51°F51°F52°F53°F54°F54°F54°F54°F53°F53°F53°F54°F58°F59°F59°F58°F57°F56°F55°F54°F53°F53°F52°F52°F53°F55°F58°F60°F63°F66°F67°F68°F69°F69°F69°F69°F71°F73°F74°F73°F73°F73°F72°F72°F71°F70°F70°F70°F
Pressure 29.97"29.97"29.97"29.97"29.94"29.91"29.88"29.85"29.83"29.8"29.8"29.77"29.77"29.77"29.77"29.77"29.77"29.8"29.8"29.8"29.8"29.8"29.8"29.8"29.83"29.83"29.83"29.83"29.8"29.8"29.8"29.77"29.77"29.74"29.71"29.71"29.71"29.71"29.71"29.71"29.74"29.74"29.77"29.74"29.74"29.74"29.74"29.74"
Wind Speed 8.5 mph10.6 mph13 mph16.1 mph17.6 mph18.4 mph18.5 mph18.2 mph17.6 mph17.6 mph17.9 mph17.8 mph16.5 mph19.3 mph22.6 mph23.2 mph24.2 mph23.3 mph21.5 mph19.8 mph19.4 mph18.3 mph17.3 mph16 mph15.6 mph15.3 mph15.9 mph19.1 mph18.8 mph18.6 mph17.8 mph17.1 mph16.8 mph17.7 mph18.5 mph18.3 mph17.4 mph19.2 mph21.2 mph20.8 mph20.4 mph20.3 mph19.5 mph20.6 mph19.4 mph17.3 mph16.6 mph14.6 mph
Wind
Direction
201°
SSW
209°
SSW
219°
SW
222°
SW
223°
SW
222°
SW
222°
SW
216°
SW
205°
SSW
196°
SSW
192°
SSW
191°
S
182°
S
168°
SSE
169°
S
170°
S
174°
S
178°
S
182°
S
184°
S
189°
S
190°
S
195°
SSW
191°
S
192°
SSW
189°
S
189°
S
196°
SSW
200°
SSW
200°
SSW
203°
SSW
199°
SSW
192°
SSW
187°
S
186°
S
185°
S
177°
S
163°
SSE
163°
SSE
165°
SSE
166°
SSE
169°
S
178°
S
183°
S
181°
S
182°
S
187°
S
189°
S

Daily Forecast

Date High Low Precip. Humidity
Today
Jun 22

Clouds
86 °F
59 °F
0%
36%
Wednesday
Jun 23

Clouds
93 °F
67 °F
0%
53%
Thursday
Jun 24

Rain
93 °F
77 °F
26%
61%
Friday
Jun 25

Rain
89 °F
69 °F
73%
42%
Saturday
Jun 26

Clear
77 °F
62 °F
22%
46%
Sunday
Jun 27

Clouds
81 °F
58 °F
0%
42%
Monday
Jun 28

Rain
85 °F
64 °F
20%
39%
Tuesday
Jun 29

Rain
85 °F
65 °F
33%
53%
Wednesday
Jun 30

Rain
92 °F
66 °F
36%
45%
Thursday
Jul 1

Clear
92 °F
68 °F
0%
40%
Friday
Jul 2

Clouds
90 °F
69 °F
0%
44%
Saturday
Jul 3

Clouds
96 °F
71 °F
30%
40%
Sunday
Jul 4

Rain
94 °F
69 °F
100%
39%
Monday
Jul 5

Rain
83 °F
61 °F
100%
48%
Tuesday
Jul 6

Clear
90 °F
63 °F
0%
47%
Wednesday
Jul 7

Rain
89 °F
68 °F
36%
47%

Temperature 8-14 Day Outlook



Precipitation 8-14 Day Outlook




Quick Links
Tuttle Creek Lake News
Tuttle Creek Lake Photos
Tuttle Creek Lake Videos




About Us
Contact Us
Site Map
Search Site
Advertise With Us
   
TuttleCreek.LakesOnline.com
THE TUTTLE CREEK LAKE WEBSITE

Copyright 2021, Lakes Online
Privacy    |    Legal